Location: Birdton
(46.1166°N, 66.8166°W)
Time: 20:14:40
(UTC-04:00)

Daily predictions for brighter satellites

Satellite Brightness Start Highest point End
(mag) Time Altitude Azimuth Time Altitude Azimuth Time Altitude Azimuth
Cosmos 2263 Rocket 2.3 17:08:09 10° SSW 17:13:45 89° ESE 17:19:27 10° NNE
Cosmos 1606 2.9 17:10:52 10° S 17:14:48 85° W 17:18:45 10° N
SMAP 3.6 17:10:35 10° SE 17:14:52 38° ENE 17:19:11 10° N
MOZ.5/SAFIR/RUBIN 5/SL-8 4.5 17:10:18 10° N 17:14:52 57° WNW 17:19:26 10° SSW
Thor Agena Rocket 4.3 17:10:18 10° NNE 17:14:59 33° E 17:19:41 10° SSE
Okean 3 3.9 17:13:54 10° SSE 17:17:56 41° E 17:21:59 10° NNE
ATLAS 2AS CENTAUR R/B 3.4 17:11:07 10° NW 17:18:56 46° NE 17:26:23 10° ESE
SJ-12 4.3 17:15:07 10° SE 17:18:58 41° ENE 17:22:51 10° N
Cosmos 1125 Rocket 3.9 17:14:01 10° S 17:19:05 49° ESE 17:24:13 10° NNE
Cosmos 1269 Rocket 4.0 17:14:48 10° NNW 17:20:07 70° ENE 17:25:25 10° SSE
Cosmos 1937 Rocket 4.3 17:15:20 10° SW 17:20:29 53° WNW 17:25:38 10° NNE
SL-8 Rocket 4.4 17:17:35 10° N 17:23:21 39° ENE 17:29:04 10° SE
CZ-4 R/B 1.5 17:21:22 10° SSE 17:25:30 58° ENE 17:29:36 10° N
CSL-04 Debris 4.5 17:20:17 10° S 17:25:40 74° WSW 17:31:05 10° NNW
CSL-04 Rocket 4.4 17:22:55 10° S 17:28:17 61° WSW 17:33:46 10° NNW
Cosmos 2251 Rocket 4.3 17:25:16 10° N 17:30:00 30° ENE 17:34:40 10° ESE
Meteor 1-27 Rocket 3.8 17:25:22 10° S 17:31:14 87° E 17:37:02 10° NNE
Cosmos 2218 Rocket 4.4 17:27:10 10° N 17:33:05 40° ENE 17:38:54 10° SE
Cosmos 1812 4.4 17:32:45 10° ESE 17:35:05 16° E 17:36:54 12° NE
Cosmos 1300 Rocket 4.2 17:31:01 10° NNW 17:35:19 59° W 17:39:34 10° S
Cosmos 2181 Rocket 4.2 17:29:33 10° SSE 17:35:42 57° E 17:41:59 10° NNE
YAOGAN 1 2.6 17:32:19 10° SSE 17:36:33 55° ENE 17:40:48 10° N
Cosmos 1633 2.8 17:34:23 10° NNW 17:37:59 73° W 17:41:33 10° S
BREEZE-M DEB (TANK) 3.9 17:29:13 10° WSW 17:40:05 66° NNW 17:44:01 13° ENE
Cosmos 1844 Rocket 3.4 17:35:50 10° S 17:40:48 35° ESE 17:45:48 10° NE
MOS 1 4.2 17:35:25 10° SSE 17:41:04 77° ENE 17:46:44 10° NNW
CZ-3A R/B 4.4 17:15:25 10° SW 17:41:12 79° NW 17:46:37 12° NE
ASTEX 1 4.5 17:36:34 10° N 17:41:23 49° WNW 17:46:11 10° SSW
Cosmos 1975 4.2 17:39:13 10° NNE 17:42:05 18° ENE 17:44:56 10° ESE
ERBS 4.3 17:42:25 10° WNW 17:44:56 19° NNW 17:47:24 10° NNE
Abrixas 2.6 17:42:03 10° W 17:45:00 61° NNW 17:47:01 18° ENE
OTV 4 3.1 17:46:36 10° SW 17:48:27 15° S 17:50:17 10° SSE
Cosmos 1378 Rocket 3.6 17:44:23 10° S 17:48:41 81° W 17:53:02 10° N
GEOS 3 Rocket 3.6 17:46:48 10° SE 17:51:49 59° NE 17:56:52 10° NNW
Cosmos 2341 Rocket 4.2 17:47:22 10° N 17:53:36 80° W 17:59:48 10° S
SL-27 R/B 2.9 17:50:43 10° N 17:54:14 41° ENE 17:57:42 10° SE
Cosmos 1295 Rocket 4.4 17:48:39 10° N 17:54:50 82° E 18:00:56 10° S
Cosmos 1455 Rocket 3.5 17:52:57 10° N 17:57:05 39° ENE 18:01:14 10° SE
CORIOLIS 4.2 17:55:40 10° SSE 18:01:06 90° S 18:06:32 10° NNW
COSMOS 2406 3.4 17:55:56 10° NNW 18:01:40 79° WSW 18:07:23 10° SSE
ISS -2.2 18:02:02 10° SSW 18:04:59 30° SE 18:06:08 24° ESE
Cosmos 158 Rocket 4.2 17:59:41 10° NNW 18:05:05 79° WSW 18:10:22 10° SSE
Cosmos 2278 Rocket 3.2 18:01:32 10° SSE 18:06:06 26° ESE 18:08:11 21° ENE
Meteor 1-5 Rocket 4.3 18:06:50 10° NNW 18:12:13 76° W 18:17:42 10° S
SPOT 3 Rocket 4.3 18:12:38 10° S 18:17:44 55° W 18:22:50 10° NNW
CZ-2C R/B 3.2 18:12:59 10° S 18:17:50 57° W 18:22:51 10° NNW
Cosmos 1484 Rocket 2.5 18:17:39 10° SSE 18:21:25 71° ENE 18:25:09 10° N
Cosmos 1238 Rocket 1.9 18:22:13 10° S 18:25:09 64° E 18:25:31 56° NE
ATLAS CENTAUR R/B 4.1 18:24:03 10° NW 18:25:23 11° NNW 18:26:42 10° N
ASTRO F (AKARI) 4.3 18:23:44 20° N 18:25:46 78° WNW 18:28:54 10° SSW
MONITOR-E 4.5 18:23:06 10° S 18:26:17 71° WSW 18:29:30 10° NNW
Cosmos 2082 Rocket 2.9 18:23:15 10° N 18:28:12 30° NE 18:28:55 29° ENE
BREEZE M DEB (TANK) 3.9 18:22:47 10° SSW 18:29:36 27° SSE 18:30:50 23° SE
Genesis I 4.3 18:27:22 10° NNW 18:30:15 28° NNE 18:30:15 28° NNE
Nadezhda 3 Rocket 4.3 18:25:52 10° SSE 18:31:32 39° E 18:36:28 14° NNE
IDEFIX/ARIANE 42P 3.7 18:26:53 10° S 18:31:52 45° W 18:36:51 10° NNW
Cosmos 864 Rocket 4.5 18:28:03 10° N 18:34:21 90° NE 18:40:40 10° S
Cosmos 1833 Rocket 3.5 18:31:38 10° N 18:36:28 30° NE 18:36:28 30° NE
USA 32 4.3 18:31:35 10° SSW 18:36:47 69° W 18:42:01 10° N
Meteor 2-21 4.4 18:31:48 10° N 18:37:57 59° ENE 18:44:00 10° SSE
BREEZE M DEB (TANK) 3.0 18:36:12 10° WNW 18:39:25 65° NNE 18:42:21 32° E
Okean 1 3.2 18:37:20 10° S 18:41:21 63° E 18:42:08 50° NE
COSMO-SKYMED 1 2.4 18:39:19 21° NNE 18:42:10 83° ESE 18:46:31 10° SSW
Cosmos 1544 Rocket 4.4 18:40:43 10° NNW 18:45:03 52° W 18:49:23 10° S
Meteor 1-18 Rocket 4.2 18:39:49 10° S 18:45:27 88° E 18:51:13 10° NNE
USA 234 3.8 18:42:38 24° NE 18:46:28 50° NNW 18:52:43 10° W
SL-24 DEB 4.4 18:43:21 10° N 18:48:08 77° W 18:52:50 10° SSW
Cosmos 1500 4.3 18:47:06 10° N 18:54:20 13° SSE 18:54:45 10° SSE
Meteor 1-28 Rocket 3.9 18:54:50 43° SSE 18:54:50 43° SSE 18:57:32 10° S
NOSS 3-4 (A) 4.3 18:48:07 10° NNW 18:54:21 35° NE 18:55:14 34° NE
NOSS 3-4 (C) 4.4 18:48:14 10° NNW 18:54:28 35° NE 18:55:19 34° NE
METEOR-M 4.0 18:52:58 10° SSE 18:58:16 70° ENE 19:03:37 10° N
Cosmos 2263 Rocket 4.4 18:54:32 10° W 18:58:30 19° NW 19:02:31 10° N
CZ-3B DEB 2.5 18:56:40 10° SW 19:01:01 82° SE 19:05:05 35° ENE
NOAA 12 4.0 18:56:07 10° SSE 19:01:25 87° ENE 19:06:44 10° NNW
Meteor 2-14 Rocket 4.3 18:56:50 10° N 19:03:00 67° ENE 19:09:06 10° SSE
NOSS 3-3 (A) 4.0 18:57:36 10° SSW 19:03:40 58° ESE 19:04:55 50° E
NOSS 3-3 (C) 4.0 18:57:42 10° SSW 19:03:46 58° ESE 19:04:58 50° E
Cosmos 1346 Rocket 4.2 19:01:04 10° S 19:02:56 27° S 19:02:56 27° S
Cosmos 1536 Rocket 4.0 19:02:24 10° SSW 19:06:49 61° WNW 19:09:12 26° N
ATLAS 2AS CENTAUR R/B 3.5 19:02:23 10° NW 19:10:18 59° WSW 19:17:40 10° SSE
Cosmos 1812 4.0 19:06:57 10° SSW 19:10:36 40° WNW 19:12:08 27° NNW
Meteor 2-21 Rocket 4.4 19:11:07 10° N 19:17:21 88° W 19:23:32 10° S
Cosmos 1975 4.1 19:14:57 10° NNW 19:18:49 40° W 19:22:36 10° SSW
Meteor 2-16 Rocket 4.3 19:17:47 10° N 19:23:55 86° E 19:30:00 10° S
Cosmos 1844 Rocket 3.8 19:19:21 10° SW 19:24:37 40° NW 19:27:30 24° N
Timation 2 Rocket 4.0 19:19:16 10° NNW 19:26:07 85° ENE 19:28:08 50° SE
Cosmos 1535 Rocket 4.3 19:20:59 10° N 19:27:22 80° E 19:33:38 10° S
ISS -0.1 19:38:08 10° W 19:38:49 15° W 19:38:49 15° W
BREEZE-M R/B 4.1 19:40:41 10° WSW 19:47:38 59° SW 19:47:38 59° SW
Cosmos 2278 Rocket 2.7 19:44:18 10° SW 19:49:50 53° WNW 19:50:04 53° NW
Cosmos 1821 Rocket 4.1 19:48:12 10° NNW 19:54:16 67° W 19:54:32 66° WSW
Cosmos 2082 Rocket 3.4 20:07:05 10° NW 20:10:50 38° WNW 20:10:50 38° WNW
Cosmos 1833 Rocket 4.3 20:15:18 10° NW 20:18:13 29° NW 20:18:13 29° NW
